| time (UTC) | temp C | wind direction | speed KPH | gust KPH | rain 1hr cm | rain 24hr cm | rain mn cm | humidity % | barometer mb |
| 20260510211201 | 22 | 129 | 3.2 | 17.7 | 0.00 | 0.00 | 0.00 | 31 | 1015.7 |
| 20260510210701 | 22 | 72 | 0.0 | 6.4 | 0.00 | 0.00 | 0.00 | 32 | 1015.8 |
| 20260510210201 | 22 | 277 | 0.0 | 11.3 | 0.00 | 0.00 | 0.00 | 35 | 1015.8 |
| 20260510205703 | 22 | 123 | 1.6 | 11.3 | 0.00 | 0.00 | 0.00 | 32 | 1015.9 |
| 20260510205157 | 22 | 176 | 0.0 | 12.9 | 0.00 | 0.00 | 0.00 | 32 | 1016.0 |
| 20260510204652 | 22 | 184 | 3.2 | 12.9 | 0.00 | 0.00 | 0.00 | 32 | 1016.0 |
| 20260510204152 | 22 | 19 | 0.0 | 4.8 | 0.00 | 0.00 | 0.00 | 32 | 1016.2 |
| 20260510203652 | 22 | 208 | 0.0 | 4.8 | 0.00 | 0.00 | 0.00 | 33 | 1016.2 |
| 20260510203417 | 22 | 41 | 1.6 | 11.3 | 0.00 | 0.00 | 0.00 | 33 | 1016.3 |
| 20260510203255 | 22 | 288 | 0.0 | 11.3 | 0.00 | 0.00 | 0.00 | 35 | 1016.3 |
| 20260510202147 | 22 | 204 | 1.6 | 12.9 | 0.00 | 0.00 | 0.00 | 33 | 1016.4 |
| 20260510201643 | 22 | 311 | 0.0 | 12.9 | 0.00 | 0.00 | 0.00 | 32 | 1016.5 |
| 20260510201140 | 22 | 78 | 0.0 | 8.0 | 0.00 | 0.00 | 0.00 | 35 | 1016.5 |
| 20260510200628 | 21 | 61 | 3.2 | 8.0 | 0.00 | 0.00 | 0.00 | 34 | 1016.6 |
| 20260510200127 | 21 | 325 | 1.6 | 11.3 | 0.00 | 0.00 | 0.00 | 33 | 1016.5 |
| 20260510195628 | 21 | 117 | 4.8 | 11.3 | 0.00 | 0.00 | 0.00 | 33 | 1016.5 |
| 20260510195128 | 21 | 247 | 1.6 | 11.3 | 0.00 | 0.00 | 0.00 | 35 | 1016.5 |
| 20260510194623 | 21 | 59 | 0.0 | 14.5 | 0.00 | 0.00 | 0.00 | 37 | 1016.6 |
| 20260510194118 | 21 | 292 | 3.2 | 14.5 | 0.00 | 0.00 | 0.00 | 34 | 1016.6 |
| 20260510193855 | 21 | 288 | 0.0 | 8.0 | 0.00 | 0.00 | 0.00 | 37 | 1016.6 |
| 20260510193117 | 21 | 247 | 1.6 | 9.7 | 0.00 | 0.00 | 0.00 | 36 | 1016.7 |
| 20260510192841 | 20 | 338 | 0.0 | 9.7 | 0.00 | 0.00 | 0.00 | 35 | 1016.7 |
| 20260510192325 | 20 | 11 | 0.0 | 8.0 | 0.00 | 0.00 | 0.00 | 38 | 1016.8 |
| 20260510191823 | 20 | 155 | 0.0 | 9.7 | 0.00 | 0.00 | 0.00 | 36 | 1016.8 |
| 20260510191103 | 20 | 157 | 1.6 | 9.7 | 0.00 | 0.00 | 0.00 | 35 | 1017.0 |
| 20260510190559 | 20 | 117 | 1.6 | 24.1 | 0.00 | 0.00 | 0.00 | 37 | 1017.2 |
| 20260510190059 | 20 | 192 | 3.2 | 19.3 | 0.00 | 0.00 | 0.00 | 37 | 1017.3 |
| 20260510190044 | 19 | 68 | 4.8 | 12.9 | 0.00 | 0.00 | 0.00 | 37 | 1017.0 |
| 20260510185054 | 19 | 93 | 1.6 | 14.5 | 0.00 | 0.00 | 0.00 | 40 | 1017.3 |
| 20260510184555 | 19 | 182 | 1.6 | 14.5 | 0.00 | 0.00 | 0.00 | 40 | 1017.4 |
| 20260510184058 | 19 | 210 | 1.6 | 12.9 | 0.00 | 0.00 | 0.00 | 41 | 1017.5 |
| 20260510183552 | 19 | 105 | 3.2 | 11.3 | 0.00 | 0.00 | 0.00 | 42 | 1017.6 |
| 20260510183313 | 19 | 329 | 1.6 | 12.9 | 0.00 | 0.00 | 0.00 | 42 | 1017.7 |
| 20260510182546 | 19 | 142 | 4.8 | 12.9 | 0.00 | 0.00 | 0.00 | 44 | 1017.8 |
| 20260510182308 | 18 | 240 | 3.2 | 12.9 | 0.00 | 0.00 | 0.00 | 46 | 1017.8 |
| 20260510181540 | 18 | 89 | 4.8 | 12.9 | 0.00 | 0.00 | 0.00 | 47 | 1017.8 |
| 20260510181258 | 18 | 313 | 1.6 | 4.8 | 0.00 | 0.00 | 0.00 | 47 | 1017.9 |
| 20260510180541 | 18 | 296 | 0.0 | 4.8 | 0.00 | 0.00 | 0.00 | 48 | 1017.9 |
| 20260510180530 | 18 | 103 | 0.0 | 6.4 | 0.00 | 0.00 | 0.00 | 49 | 1017.9 |
| 20260510175539 | 18 | 102 | 0.0 | 6.4 | 0.00 | 0.00 | 0.00 | 51 | 1018.1 |
| 20260510175036 | 17 | 109 | 3.2 | 6.4 | 0.00 | 0.00 | 0.00 | 50 | 1018.2 |
| 20260510174537 | 17 | 87 | 1.6 | 8.0 | 0.00 | 0.00 | 0.00 | 51 | 1018.2 |
| 20260510174300 | 17 | 209 | 1.6 | 8.0 | 0.00 | 0.00 | 0.00 | 53 | 1018.3 |
| 20260510173536 | 17 | 192 | 0.0 | 6.4 | 0.00 | 0.00 | 0.00 | 53 | 1018.4 |
| 20260510173040 | 17 | 125 | 1.6 | 6.4 | 0.00 | 0.00 | 0.00 | 55 | 1018.5 |
| 20260510172533 | 16 | 115 | 0.0 | 4.8 | 0.00 | 0.00 | 0.00 | 59 | 1018.4 |
| 20260510172022 | 16 | 148 | 0.0 | 6.4 | 0.00 | 0.00 | 0.00 | 58 | 1018.5 |
| 20260510171513 | 16 | 121 | 3.2 | 6.4 | 0.00 | 0.00 | 0.00 | 56 | 1018.6 |
| 20260510171002 | 16 | 99 | 0.0 | 6.4 | 0.00 | 0.00 | 0.00 | 59 | 1018.7 |
| 20260510170502 | 15 | 124 | 0.0 | 6.4 | 0.00 | 0.00 | 0.00 | 58 | 1018.8 |
| 20260510170003 | 15 | 103 | 1.6 | 6.4 | 0.00 | 0.00 | 0.00 | 60 | 1018.9 |
| 20260510165458 | 15 | 111 | 0.0 | 6.4 | 0.00 | 0.00 | 0.00 | 62 | 1018.8 |
| 20260510165205 | 15 | 111 | 1.6 | 6.4 | 0.00 | 0.00 | 0.00 | 61 | 1018.8 |
| 20260510164443 | 14 | 108 | 0.0 | 1.6 | 0.00 | 0.00 | 0.00 | 63 | 1018.9 |
| 20260510163938 | 13 | 108 | 0.0 | 3.2 | 0.00 | 0.00 | 0.00 | 63 | 1018.9 |
| 20260510163434 | 13 | 108 | 0.0 | 3.2 | 0.00 | 0.00 | 0.00 | 65 | 1018.9 |
| 20260510162933 | 13 | 108 | 0.0 | 4.8 | 0.00 | 0.00 | 0.00 | 65 | 1018.9 |
| 20260510162434 | 13 | 108 | 1.6 | 4.8 | 0.00 | 0.00 | 0.00 | 65 | 1018.9 |
| 20260510161934 | 13 | 112 | 0.0 | 3.2 | 0.00 | 0.00 | 0.00 | 68 | 1018.9 |
| 20260510161652 | 12 | 116 | 0.0 | 4.8 | 0.00 | 0.00 | 0.00 | 67 | 1019.1 |
| 20260510160930 | 12 | 117 | 0.0 | 3.2 | 0.00 | 0.00 | 0.00 | 68 | 1019.2 |
| 20260510160432 | 12 | 101 | 0.0 | 3.2 | 0.00 | 0.00 | 0.00 | 68 | 1019.3 |
| 20260510155905 | 12 | 101 | 0.0 | 3.2 | 0.00 | 0.00 | 0.00 | 70 | 1019.3 |
| 20260510155636 | 12 | 98 | 0.0 | 4.8 | 0.00 | 0.00 | 0.00 | 70 | 1019.4 |
| 20260510154905 | 12 | 98 | 1.6 | 4.8 | 0.00 | 0.00 | 0.00 | 71 | 1019.5 |
| 20260510154405 | 11 | 80 | 0.0 | 4.8 | 0.00 | 0.00 | 0.00 | 71 | 1019.5 |
| 20260510153908 | 11 | 122 | 0.0 | 3.2 | 0.00 | 0.00 | 0.00 | 72 | 1019.5 |
| 20260510153405 | 11 | 167 | 0.0 | 8.0 | 0.00 | 0.00 | 0.00 | 75 | 1019.6 |
| 20260510152905 | 11 | 167 | 1.6 | 8.0 | 0.00 | 0.00 | 0.00 | 73 | 1019.5 |
| 20260510152400 | 11 | 94 | 1.6 | 4.8 | 0.00 | 0.00 | 0.00 | 74 | 1019.6 |
| 20260510151900 | 10 | 88 | 0.0 | 3.2 | 0.00 | 0.00 | 0.00 | 75 | 1019.7 |
| 20260510151356 | 10 | 83 | 0.0 | 1.6 | 0.00 | 0.00 | 0.00 | 76 | 1019.6 |
| 20260510150857 | 10 | 83 | 0.0 | 1.6 | 0.00 | 0.00 | 0.00 | 78 | 1019.6 |
| 20260510150356 | 10 | 83 | 0.0 | 3.2 | 0.00 | 0.00 | 0.00 | 76 | 1019.5 |
| 20260510150340 | 9 | 83 | 0.0 | 3.2 | 0.00 | 0.00 | 0.00 | 76 | 1019.6 |
| 20260510145342 | 9 | 82 | 0.0 | 6.4 | 0.00 | 0.00 | 0.00 | 79 | 1019.7 |
| 20260510144836 | 9 | 81 | 0.0 | 6.4 | 0.00 | 0.00 | 0.00 | 78 | 1019.8 |
| 20260510144332 | 8 | 142 | 0.0 | 3.2 | 0.00 | 0.00 | 0.00 | 79 | 1019.7 |
| 20260510144053 | 8 | 149 | 0.0 | 3.2 | 0.00 | 0.00 | 0.00 | 80 | 1019.8 |
| 20260510143335 | 8 | 144 | 0.0 | 3.2 | 0.00 | 0.00 | 0.00 | 82 | 1019.8 |
| 20260510142832 | 8 | 159 | 0.0 | 3.2 | 0.00 | 0.00 | 0.00 | 84 | 1019.9 |
| 20260510142332 | 7 | 280 | 0.0 | 0.0 | 0.00 | 0.00 | 0.00 | 88 | 1019.9 |
| 20260510141828 | 7 | 280 | 0.0 | 0.0 | 0.00 | 0.00 | 0.00 | 90 | 1020.1 |
| 20260510141327 | 7 | 280 | 0.0 | 4.8 | 0.00 | 0.00 | 0.00 | 92 | 1020.1 |
| 20260510140831 | 6 | 280 | 0.0 | 4.8 | 0.00 | 0.00 | 0.00 | 93 | 1020.1 |
| 20260510140328 | 6 | 272 | 0.0 | 0.0 | 0.00 | 0.00 | 0.00 | 95 | 1020.1 |
| 20260510140051 | 6 | 272 | 0.0 | 0.0 | 0.00 | 0.00 | 0.00 | 96 | 1020.1 |
| 20260510135329 | 5 | 272 | 0.0 | 0.0 | 0.00 | 0.00 | 0.00 | 96 | 1020.1 |
| 20260510134828 | 5 | 272 | 0.0 | 0.0 | 0.00 | 0.00 | 0.00 | 95 | 1019.9 |
| 20260510134326 | 5 | 272 | 0.0 | 0.0 | 0.00 | 0.00 | 0.00 | 95 | 1020.1 |
| 20260510134043 | 5 | 272 | 0.0 | 0.0 | 0.00 | 0.00 | 0.00 | 95 | 1020.1 |
| 20260510133527 | 5 | 272 | 0.0 | 0.0 | 0.00 | 0.00 | 0.00 | 95 | 1019.9 |
| 20260510132805 | 4 | 272 | 0.0 | 0.0 | 0.00 | 0.00 | 0.00 | 95 | 1020.1 |
| 20260510132306 | 4 | 272 | 0.0 | 0.0 | 0.00 | 0.00 | 0.00 | 95 | 1019.9 |
| 20260510131804 | 4 | 272 | 0.0 | 0.0 | 0.00 | 0.00 | 0.00 | 94 | 1019.9 |
| 20260510131305 | 4 | 272 | 0.0 | 0.0 | 0.00 | 0.00 | 0.00 | 94 | 1020.1 |
| 20260510130800 | 4 | 272 | 0.0 | 0.0 | 0.00 | 0.00 | 0.00 | 94 | 1020.1 |
| 20260510130254 | 3 | 272 | 0.0 | 0.0 | 0.00 | 0.00 | 0.00 | 94 | 1020.1 |
| 20260510125749 | 3 | 272 | 0.0 | 0.0 | 0.00 | 0.00 | 0.00 | 94 | 1020.1 |
| 20260510125733 | 3 | 272 | 0.0 | 0.0 | 0.00 | 0.00 | 0.00 | 93 | 1020.1 |
| 20260510124745 | 3 | 272 | 0.0 | 0.0 | 0.00 | 0.00 | 0.00 | 93 | 1020.2 |
| 20260510124520 | 3 | 272 | 0.0 | 0.0 | 0.00 | 0.00 | 0.00 | 93 | 1020.2 |
| 20260510123730 | 3 | 272 | 0.0 | 0.0 | 0.00 | 0.00 | 0.00 | 93 | 1020.2 |
| 20260510123233 | 3 | 272 | 0.0 | 0.0 | 0.00 | 0.00 | 0.00 | 93 | 1020.3 |
| 20260510122725 | 3 | 272 | 0.0 | 0.0 | 0.00 | 0.00 | 0.00 | 93 | 1020.2 |
| 20260510122226 | 3 | 272 | 0.0 | 0.0 | 0.00 | 0.00 | 0.00 | 92 | 1020.1 |
| 20260510121726 | 3 | 272 | 0.0 | 0.0 | 0.00 | 0.00 | 0.00 | 92 | 1020.1 |
| 20260510121226 | 3 | 272 | 0.0 | 0.0 | 0.00 | 0.00 | 0.00 | 92 | 1020.1 |
| 20260510120727 | 3 | 272 | 0.0 | 0.0 | 0.00 | 0.00 | 0.00 | 92 | 1020.1 |
| 20260510120222 | 4 | 272 | 0.0 | 0.0 | 0.00 | 0.00 | 0.00 | 92 | 1020.1 |
| 20260510115722 | 4 | 272 | 0.0 | 0.0 | 0.00 | 0.00 | 0.00 | 92 | 1020.1 |
| 20260510115222 | 4 | 272 | 0.0 | 0.0 | 0.00 | 0.00 | 0.00 | 92 | 1019.9 |
| 20260510114938 | 4 | 272 | 0.0 | 0.0 | 0.00 | 0.00 | 0.00 | 92 | 1020.1 |
| 20260510114202 | 4 | 272 | 0.0 | 1.6 | 0.00 | 0.00 | 0.00 | 92 | 1020.2 |
| 20260510113702 | 4 | 272 | 0.0 | 1.6 | 0.00 | 0.00 | 0.00 | 92 | 1020.1 |
| 20260510113205 | 4 | 272 | 0.0 | 0.0 | 0.00 | 0.00 | 0.00 | 92 | 1020.1 |
| 20260510112700 | 4 | 272 | 0.0 | 0.0 | 0.00 | 0.00 | 0.00 | 92 | 1020.3 |
| 20260510112156 | 4 | 272 | 0.0 | 0.0 | 0.00 | 0.00 | 0.00 | 91 | 1020.2 |
| 20260510111851 | 4 | 272 | 0.0 | 0.0 | 0.00 | 0.00 | 0.00 | 91 | 1020.3 |
| 20260510111127 | 4 | 272 | 0.0 | 0.0 | 0.00 | 0.00 | 0.00 | 91 | 1020.2 |
| 20260510110628 | 4 | 272 | 0.0 | 0.0 | 0.00 | 0.00 | 0.00 | 91 | 1020.2 |
| 20260510110128 | 4 | 272 | 0.0 | 0.0 | 0.00 | 0.00 | 0.00 | 91 | 1020.3 |
| 20260510105626 | 5 | 272 | 0.0 | 0.0 | 0.00 | 0.00 | 0.00 | 91 | 1020.3 |
| 20260510105121 | 5 | 272 | 0.0 | 0.0 | 0.00 | 0.00 | 0.00 | 91 | 1020.3 |
| 20260510104616 | 5 | 272 | 0.0 | 0.0 | 0.00 | 0.00 | 0.00 | 91 | 1020.4 |
| 20260510104113 | 5 | 272 | 0.0 | 0.0 | 0.00 | 0.00 | 0.00 | 90 | 1020.4 |
| 20260510103608 | 5 | 272 | 0.0 | 0.0 | 0.00 | 0.00 | 0.00 | 90 | 1020.4 |
| 20260510103109 | 5 | 272 | 0.0 | 0.0 | 0.00 | 0.00 | 0.00 | 90 | 1020.4 |
| 20260510102609 | 5 | 272 | 0.0 | 0.0 | 0.00 | 0.00 | 0.00 | 90 | 1020.3 |
| 20260510102112 | 5 | 272 | 0.0 | 0.0 | 0.00 | 0.00 | 0.00 | 90 | 1020.3 |
| 20260510101609 | 5 | 272 | 0.0 | 0.0 | 0.00 | 0.00 | 0.00 | 90 | 1020.3 |
| 20260510101318 | 5 | 272 | 0.0 | 0.0 | 0.00 | 0.00 | 0.00 | 90 | 1020.4 |
| 20260510100544 | 5 | 272 | 0.0 | 0.0 | 0.00 | 0.00 | 0.00 | 89 | 1020.4 |
| 20260510100045 | 5 | 272 | 0.0 | 0.0 | 0.00 | 0.00 | 0.00 | 89 | 1020.3 |
| 20260510095540 | 5 | 272 | 0.0 | 0.0 | 0.00 | 0.00 | 0.00 | 89 | 1020.2 |
| 20260510095035 | 5 | 272 | 0.0 | 0.0 | 0.00 | 0.00 | 0.00 | 89 | 1020.2 |
| 20260510094525 | 5 | 272 | 0.0 | 0.0 | 0.00 | 0.00 | 0.00 | 89 | 1020.2 |
| 20260510094025 | 5 | 272 | 0.0 | 0.0 | 0.00 | 0.00 | 0.00 | 89 | 1020.2 |
| 20260510093743 | 5 | 272 | 0.0 | 0.0 | 0.00 | 0.00 | 0.00 | 89 | 1020.3 |
| 20260510093025 | 5 | 272 | 0.0 | 0.0 | 0.00 | 0.00 | 0.00 | 88 | 1020.2 |
| 20260510092521 | 6 | 272 | 0.0 | 0.0 | 0.00 | 0.00 | 0.00 | 88 | 1020.3 |
| 20260510092016 | 6 | 272 | 0.0 | 0.0 | 0.00 | 0.00 | 0.00 | 88 | 1020.2 |
| 20260510091725 | 6 | 272 | 0.0 | 0.0 | 0.00 | 0.00 | 0.00 | 88 | 1020.2 |
| 20260510090950 | 6 | 272 | 0.0 | 0.0 | 0.00 | 0.00 | 0.00 | 88 | 1020.1 |
| 20260510090451 | 6 | 272 | 0.0 | 0.0 | 0.00 | 0.00 | 0.00 | 88 | 1020.1 |
| 20260510085946 | 6 | 272 | 0.0 | 0.0 | 0.00 | 0.00 | 0.00 | 88 | 1020.2 |
| 20260510085716 | 6 | 272 | 0.0 | 0.0 | 0.00 | 0.00 | 0.00 | 88 | 1020.2 |
| 20260510084941 | 6 | 272 | 0.0 | 0.0 | 0.00 | 0.00 | 0.00 | 88 | 1020.2 |
| 20260510084426 | 6 | 272 | 0.0 | 0.0 | 0.00 | 0.00 | 0.00 | 88 | 1020.2 |
| 20260510083926 | 6 | 272 | 0.0 | 0.0 | 0.00 | 0.00 | 0.00 | 87 | 1020.2 |
| 20260510083642 | 6 | 272 | 0.0 | 0.0 | 0.00 | 0.00 | 0.00 | 87 | 1020.2 |
| 20260510082917 | 6 | 272 | 0.0 | 0.0 | 0.00 | 0.00 | 0.00 | 87 | 1020.2 |
| 20260510082419 | 6 | 272 | 0.0 | 0.0 | 0.00 | 0.00 | 0.00 | 87 | 1020.2 |
| 20260510081917 | 6 | 272 | 0.0 | 0.0 | 0.00 | 0.00 | 0.00 | 87 | 1020.2 |
| 20260510081417 | 6 | 272 | 0.0 | 0.0 | 0.00 | 0.00 | 0.00 | 87 | 1020.3 |
| 20260510080902 | 6 | 272 | 0.0 | 0.0 | 0.00 | 0.00 | 0.00 | 87 | 1020.2 |
| 20260510080402 | 6 | 272 | 0.0 | 0.0 | 0.00 | 0.00 | 0.00 | 87 | 1020.2 |
| 20260510075905 | 6 | 272 | 0.0 | 0.0 | 0.00 | 0.00 | 0.00 | 86 | 1020.2 |
| 20260510075620 | 7 | 272 | 0.0 | 0.0 | 0.00 | 0.00 | 0.00 | 86 | 1020.3 |
| 20260510074848 | 7 | 272 | 0.0 | 0.0 | 0.00 | 0.00 | 0.00 | 86 | 1020.2 |
| 20260510074337 | 7 | 272 | 0.0 | 0.0 | 0.00 | 0.00 | 0.00 | 86 | 1020.2 |
| 20260510074053 | 7 | 272 | 0.0 | 0.0 | 0.00 | 0.00 | 0.00 | 86 | 1020.2 |
| 20260510073559 | 7 | 272 | 0.0 | 0.0 | 0.00 | 0.00 | 0.00 | 86 | 1020.3 |
| 20260510072835 | 7 | 272 | 0.0 | 0.0 | 0.00 | 0.00 | 0.00 | 86 | 1020.2 |
| 20260510072328 | 7 | 272 | 0.0 | 0.0 | 0.00 | 0.00 | 0.00 | 86 | 1020.2 |
| 20260510071823 | 7 | 272 | 0.0 | 0.0 | 0.00 | 0.00 | 0.00 | 86 | 1020.2 |
| 20260510071326 | 7 | 272 | 0.0 | 0.0 | 0.00 | 0.00 | 0.00 | 86 | 1020.2 |
| 20260510070819 | 7 | 272 | 0.0 | 0.0 | 0.00 | 0.00 | 0.00 | 85 | 1020.2 |
| 20260510070314 | 7 | 272 | 0.0 | 0.0 | 0.00 | 0.00 | 0.00 | 85 | 1020.2 |
| 20260510065814 | 7 | 272 | 0.0 | 0.0 | 0.00 | 0.00 | 0.00 | 84 | 1020.1 |
| 20260510065314 | 7 | 272 | 0.0 | 0.0 | 0.00 | 0.00 | 0.00 | 84 | 1020.1 |
| 20260510064811 | 7 | 272 | 0.0 | 0.0 | 0.00 | 0.00 | 0.00 | 84 | 1020.2 |
| 20260510064304 | 7 | 272 | 0.0 | 0.0 | 0.00 | 0.00 | 0.00 | 84 | 1020.2 |
| 20260510064011 | 7 | 272 | 0.0 | 0.0 | 0.00 | 0.00 | 0.00 | 84 | 1020.1 |
| 20260510063249 | 7 | 272 | 0.0 | 0.0 | 0.00 | 0.00 | 0.00 | 84 | 1020.1 |
| 20260510062752 | 7 | 272 | 0.0 | 0.0 | 0.00 | 0.00 | 0.00 | 84 | 1020.1 |
| 20260510062247 | 7 | 272 | 0.0 | 0.0 | 0.00 | 0.00 | 0.00 | 84 | 1020.1 |
| 20260510061737 | 7 | 272 | 0.0 | 3.2 | 0.00 | 0.00 | 0.00 | 84 | 1020.2 |
| 20260510061235 | 7 | 272 | 0.0 | 3.2 | 0.00 | 0.00 | 0.00 | 83 | 1020.2 |
| 20260510060955 | 7 | 272 | 0.0 | 0.0 | 0.00 | 0.00 | 0.00 | 84 | 1020.2 |
| 20260510060232 | 7 | 272 | 0.0 | 0.0 | 0.00 | 0.00 | 0.00 | 84 | 1020.1 |
| 20260510055717 | 7 | 272 | 0.0 | 0.0 | 0.00 | 0.00 | 0.00 | 83 | 1020.1 |
| 20260510055215 | 8 | 272 | 0.0 | 0.0 | 0.00 | 0.00 | 0.00 | 83 | 1020.1 |
| 20260510054711 | 8 | 272 | 0.0 | 0.0 | 0.00 | 0.00 | 0.00 | 82 | 1019.9 |
| 20260510054205 | 8 | 272 | 0.0 | 0.0 | 0.00 | 0.00 | 0.00 | 82 | 1019.9 |
| 20260510053703 | 8 | 272 | 0.0 | 0.0 | 0.00 | 0.00 | 0.00 | 82 | 1019.9 |
| 20260510053146 | 8 | 272 | 0.0 | 0.0 | 0.00 | 0.00 | 0.00 | 82 | 1019.8 |
| 20260510052646 | 8 | 272 | 0.0 | 0.0 | 0.00 | 0.00 | 0.00 | 81 | 1019.8 |
| 20260510052402 | 8 | 272 | 0.0 | 0.0 | 0.00 | 0.00 | 0.00 | 81 | 1019.8 |
| 20260510051641 | 8 | 272 | 0.0 | 1.6 | 0.00 | 0.00 | 0.00 | 81 | 1019.8 |
| 20260510051405 | 8 | 272 | 0.0 | 1.6 | 0.00 | 0.00 | 0.00 | 80 | 1019.7 |
| 20260510050637 | 8 | 272 | 0.0 | 0.0 | 0.00 | 0.00 | 0.00 | 81 | 1019.8 |
| 20260510050137 | 8 | 272 | 0.0 | 1.6 | 0.00 | 0.00 | 0.00 | 80 | 1019.7 |
| 20260510045626 | 8 | 272 | 0.0 | 1.6 | 0.00 | 0.00 | 0.00 | 80 | 1019.8 |
| 20260510045127 | 9 | 272 | 0.0 | 0.0 | 0.00 | 0.00 | 0.00 | 80 | 1019.8 |
| 20260510044627 | 9 | 272 | 0.0 | 3.2 | 0.00 | 0.00 | 0.00 | 81 | 1019.8 |
| 20260510044130 | 9 | 272 | 0.0 | 3.2 | 0.00 | 0.00 | 0.00 | 79 | 1019.7 |
| 20260510043623 | 9 | 272 | 0.0 | 0.0 | 0.00 | 0.00 | 0.00 | 79 | 1019.8 |
| 20260510043608 | 9 | 272 | 0.0 | 0.0 | 0.00 | 0.00 | 0.00 | 79 | 1019.8 |
| 20260510042613 | 10 | 272 | 0.0 | 0.0 | 0.00 | 0.00 | 0.00 | 78 | 1019.7 |
| 20260510042113 | 10 | 272 | 0.0 | 0.0 | 0.00 | 0.00 | 0.00 | 78 | 1019.7 |
| 20260510041615 | 10 | 272 | 0.0 | 0.0 | 0.00 | 0.00 | 0.00 | 76 | 1019.7 |
| 20260510041337 | 10 | 272 | 0.0 | 0.0 | 0.00 | 0.00 | 0.00 | 76 | 1019.7 |
| 20260510040613 | 10 | 272 | 0.0 | 0.0 | 0.00 | 0.00 | 0.00 | 76 | 1019.7 |
| 20260510040108 | 10 | 272 | 0.0 | 0.0 | 0.00 | 0.00 | 0.00 | 75 | 1019.6 |
| 20260510035608 | 11 | 272 | 0.0 | 0.0 | 0.00 | 0.00 | 0.00 | 75 | 1019.5 |
| 20260510035109 | 11 | 272 | 0.0 | 0.0 | 0.00 | 0.00 | 0.00 | 75 | 1019.5 |
| 20260510034609 | 11 | 272 | 0.0 | 0.0 | 0.00 | 0.00 | 0.00 | 75 | 1019.4 |
| 20260510034109 | 11 | 272 | 0.0 | 0.0 | 0.00 | 0.00 | 0.00 | 73 | 1019.3 |
| 20260510033605 | 11 | 272 | 0.0 | 0.0 | 0.00 | 0.00 | 0.00 | 73 | 1019.2 |
| 20260510033100 | 11 | 272 | 0.0 | 0.0 | 0.00 | 0.00 | 0.00 | 72 | 1019.2 |
| 20260510032600 | 12 | 272 | 0.0 | 0.0 | 0.00 | 0.00 | 0.00 | 71 | 1019.2 |
| 20260510032314 | 12 | 272 | 0.0 | 0.0 | 0.00 | 0.00 | 0.00 | 71 | 1019.1 |
| 20260510031550 | 12 | 272 | 0.0 | 0.0 | 0.00 | 0.00 | 0.00 | 70 | 1019.1 |
| 20260510031050 | 12 | 272 | 0.0 | 0.0 | 0.00 | 0.00 | 0.00 | 70 | 1018.9 |
| 20260510030548 | 13 | 272 | 0.0 | 0.0 | 0.00 | 0.00 | 0.00 | 69 | 1018.9 |
| 20260510030045 | 13 | 272 | 0.0 | 0.0 | 0.00 | 0.00 | 0.00 | 68 | 1018.9 |
| 20260510025545 | 13 | 272 | 0.0 | 0.0 | 0.00 | 0.00 | 0.00 | 67 | 1018.8 |
| 20260510025045 | 14 | 272 | 0.0 | 1.6 | 0.00 | 0.00 | 0.00 | 66 | 1018.8 |
| 20260510024540 | 14 | 272 | 0.0 | 1.6 | 0.00 | 0.00 | 0.00 | 64 | 1018.8 |
| 20260510024041 | 15 | 271 | 0.0 | 1.6 | 0.00 | 0.00 | 0.00 | 63 | 1018.7 |
| 20260510023539 | 15 | 271 | 0.0 | 1.6 | 0.00 | 0.00 | 0.00 | 62 | 1018.7 |
| 20260510023036 | 16 | 271 | 0.0 | 1.6 | 0.00 | 0.00 | 0.00 | 61 | 1018.8 |
| 20260510022536 | 16 | 271 | 0.0 | 1.6 | 0.00 | 0.00 | 0.00 | 60 | 1018.8 |
| 20260510022037 | 16 | 271 | 0.0 | 1.6 | 0.00 | 0.00 | 0.00 | 58 | 1018.8 |
| 20260510021526 | 16 | 271 | 0.0 | 0.0 | 0.00 | 0.00 | 0.00 | 57 | 1018.8 |
| 20260510021026 | 17 | 271 | 0.0 | 0.0 | 0.00 | 0.00 | 0.00 | 56 | 1018.7 |
| 20260510020525 | 17 | 271 | 0.0 | 1.6 | 0.00 | 0.00 | 0.00 | 55 | 1018.8 |
| 20260510020236 | 17 | 271 | 0.0 | 1.6 | 0.00 | 0.00 | 0.00 | 55 | 1018.7 |
| 20260510015512 | 17 | 281 | 0.0 | 3.2 | 0.00 | 0.00 | 0.00 | 50 | 1018.7 |
| 20260510015011 | 17 | 281 | 0.0 | 3.2 | 0.00 | 0.00 | 0.00 | 47 | 1018.7 |
| 20260510014512 | 18 | 223 | 0.0 | 8.0 | 0.00 | 0.00 | 0.00 | 51 | 1018.6 |
| 20260510014007 | 18 | 223 | 0.0 | 8.0 | 0.00 | 0.00 | 0.00 | 43 | 1018.6 |
| 20260510013507 | 18 | 302 | 0.0 | 4.8 | 0.00 | 0.00 | 0.00 | 47 | 1018.7 |
| 20260510013010 | 18 | 273 | 0.0 | 4.8 | 0.00 | 0.00 | 0.00 | 48 | 1018.7 |
| 20260510012727 | 18 | 260 | 0.0 | 3.2 | 0.00 | 0.00 | 0.00 | 46 | 1018.7 |
| 20260510012002 | 18 | 267 | 0.0 | 3.2 | 0.00 | 0.00 | 0.00 | 44 | 1018.7 |
| 20260510011503 | 18 | 294 | 0.0 | 1.6 | 0.00 | 0.05 | 0.00 | 45 | 1018.7 |
| 20260510011231 | 18 | 279 | 0.0 | 11.3 | 0.00 | 0.08 | 0.00 | 42 | 1018.7 |
| 20260510010504 | 18 | 327 | 3.2 | 11.3 | 0.00 | 0.08 | 0.00 | 42 | 1018.7 |
| 20260510010220 | 18 | 183 | 0.0 | 9.7 | 0.00 | 0.08 | 0.00 | 43 | 1018.6 |
| 20260510005454 | 19 | 298 | 0.0 | 9.7 | 0.00 | 0.08 | 0.00 | 42 | 1018.6 |
| 20260510004948 | 19 | 41 | 0.0 | 11.3 | 0.00 | 0.08 | 0.00 | 43 | 1018.6 |
| 20260510004450 | 19 | 130 | 1.6 | 11.3 | 0.00 | 0.08 | 0.00 | 42 | 1018.6 |
| 20260510003949 | 19 | 295 | 0.0 | 3.2 | 0.00 | 0.08 | 0.00 | 41 | 1018.5 |
| 20260510003705 | 19 | 94 | 0.0 | 3.2 | 0.00 | 0.08 | 0.00 | 40 | 1018.5 |
| 20260510002944 | 19 | 291 | 0.0 | 8.0 | 0.00 | 0.08 | 0.00 | 40 | 1018.5 |
| 20260510002444 | 19 | 232 | 0.0 | 8.0 | 0.00 | 0.08 | 0.00 | 39 | 1018.5 |
| 20260510001939 | 19 | 337 | 0.0 | 8.0 | 0.00 | 0.08 | 0.00 | 40 | 1018.5 |
| 20260510001435 | 20 | 304 | 0.0 | 8.0 | 0.00 | 0.08 | 0.00 | 42 | 1018.5 |
| 20260510001208 | 20 | 296 | 1.6 | 14.5 | 0.00 | 0.08 | 0.00 | 39 | 1018.5 |
| 20260510000435 | 20 | 337 | 3.2 | 14.5 | 0.00 | 0.08 | 0.00 | 41 | 1018.5 |
| 20260509235938 | 20 | 323 | 0.0 | 12.9 | 0.00 | 0.08 | 0.00 | 39 | 1018.4 |
| 20260509235421 | 20 | 284 | 0.0 | 12.9 | 0.00 | 0.08 | 0.00 | 39 | 1018.5 |
| 20260509234920 | 20 | 209 | 3.2 | 9.7 | 0.00 | 0.08 | 0.00 | 38 | 1018.4 |
| 20260509234636 | 20 | 185 | 0.0 | 4.8 | 0.00 | 0.08 | 0.00 | 41 | 1018.4 |
| 20260509233906 | 20 | 53 | 0.0 | 6.4 | 0.00 | 0.08 | 0.00 | 42 | 1018.5 |
| 20260509233401 | 20 | 265 | 0.0 | 6.4 | 0.00 | 0.08 | 0.00 | 41 | 1018.4 |
| 20260509232901 | 20 | 230 | 0.0 | 8.0 | 0.00 | 0.08 | 0.00 | 40 | 1018.5 |
| 20260509232357 | 20 | 318 | 1.6 | 12.9 | 0.00 | 0.08 | 0.00 | 41 | 1018.5 |
| 20260509231856 | 20 | 311 | 3.2 | 12.9 | 0.00 | 0.08 | 0.00 | 40 | 1018.6 |
| 20260509231619 | 20 | 24 | 1.6 | 11.3 | 0.00 | 0.08 | 0.00 | 40 | 1018.5 |
| 20260509230857 | 20 | 0 | 0.0 | 6.4 | 0.00 | 0.08 | 0.00 | 41 | 1018.6 |
| 20260509230354 | 19 | 25 | 1.6 | 6.4 | 0.00 | 0.08 | 0.00 | 42 | 1018.7 |
| 20260509225841 | 19 | 188 | 1.6 | 6.4 | 0.00 | 0.08 | 0.00 | 41 | 1018.7 |
| 20260509225338 | 19 | 0 | 1.6 | 12.9 | 0.00 | 0.08 | 0.00 | 41 | 1018.8 |
| 20260509224832 | 19 | 110 | 6.4 | 12.9 | 0.00 | 0.08 | 0.00 | 40 | 1018.8 |
| 20260509224321 | 19 | 261 | 0.0 | 8.0 | 0.00 | 0.08 | 0.00 | 42 | 1018.9 |
| 20260509223817 | 19 | 240 | 0.0 | 9.7 | 0.00 | 0.08 | 0.00 | 43 | 1019.1 |
| 20260509223317 | 19 | 155 | 1.6 | 12.9 | 0.00 | 0.08 | 0.00 | 41 | 1019.1 |
| 20260509222817 | 18 | 178 | 3.2 | 12.9 | 0.00 | 0.08 | 0.00 | 41 | 1019.2 |
| 20260509222318 | 18 | 131 | 0.0 | 6.4 | 0.00 | 0.08 | 0.00 | 44 | 1018.9 |
| 20260509221817 | 18 | 352 | 0.0 | 6.4 | 0.00 | 0.08 | 0.00 | 42 | 1019.1 |
| 20260509221312 | 18 | 348 | 1.6 | 6.4 | 0.00 | 0.08 | 0.00 | 43 | 1019.1 |
| 20260509220813 | 18 | 62 | 1.6 | 12.9 | 0.00 | 0.08 | 0.00 | 42 | 1019.1 |
| 20260509220542 | 19 | 336 | 1.6 | 12.9 | 0.00 | 0.08 | 0.00 | 42 | 1019.1 |
| 20260509215814 | 19 | 176 | 0.0 | 8.0 | 0.00 | 0.08 | 0.00 | 42 | 1019.2 |
| 20260509215317 | 19 | 321 | 1.6 | 8.0 | 0.00 | 0.08 | 0.00 | 41 | 1019.1 |
| 20260509214804 | 19 | 253 | 1.6 | 14.5 | 0.00 | 0.08 | 0.00 | 42 | 1019.1 |
| 20260509214304 | 19 | 272 | 1.6 | 14.5 | 0.00 | 0.08 | 0.00 | 43 | 1019.1 |
| 20260509213759 | 18 | 317 | 0.0 | 12.9 | 0.00 | 0.08 | 0.00 | 45 | 1019.2 |
| 20260509213259 | 18 | 171 | 0.0 | 12.9 | 0.00 | 0.08 | 0.00 | 42 | 1019.2 |
| 20260509213012 | 18 | 280 | 0.0 | 12.9 | 0.00 | 0.08 | 0.00 | 43 | 1019.3 |
| 20260509212257 | 19 | 128 | 1.6 | 8.0 | 0.00 | 0.08 | 0.00 | 41 | 1019.3 |
| 20260509211742 | 19 | 149 | 1.6 | 11.3 | 0.00 | 0.08 | 0.00 | 41 | 1019.3 |